User: anonymous   Login
Location: Mount Graham
(32.7016°N, 109.8912°W)
Time: 09:17:10
(UTC-07:00)
Language:

Cosmos 1340 - Orbit

View from above orbital plane
View from above orbital plane
View from above satellite
View from above satellite

Ground track
Ground track

The orbit data is extracted from the following two-line orbital elements,

1 13067U 82013A   15024.52234826  .00002351  00000-0  12435-3 0  5776
2 13067 081.1869 071.7051 0003062 203.8222 271.2217 15.15096029795138
Epoch (UTC): 24 January 2015 12:32:10
Eccentricity: 0.0003062
inclination: 81.1869°
perigee height: 518 km
apogee height: 523 km
right ascension of ascending node: 71.7051°
argument of perigee: 203.8222°
revolutions per day: 15.15096029
mean anomaly at epoch: 271.2217°
orbit number at epoch: 79513

The dashed part of the orbit path shows where the satellite is in the earth's shadow,  

DLR